SV1BIX Weather Reports


time (UTC)temp
C
wind
direction
speed
KPH
gust
KPH
rain 1hr
cm
rain 24hr
cm
rain mn
cm
humidity
%
barometer
mb
20260507030026 -17 0.0 0.0 0.00 0.00 0.00 1017.1
20260507024526 -17 0.0 0.0 0.00 0.00 0.00 1017.0
20260507023005 -17 0.0 0.0 0.00 0.00 0.00 1017.0
20260507021501 -17 0.0 0.0 0.00 0.00 0.00 1016.9
20260507020147 -17 0.0 0.0 0.00 0.00 0.00 1017.1
20260507014553 -17 0.0 0.0 0.00 0.00 0.00 1017.2
20260507013044 -17 0.0 0.0 0.00 0.00 0.00 1016.9
20260507011538 -17 0.0 0.0 0.00 0.00 0.00 1016.7
20260507010032 -17 0.0 0.0 0.00 0.00 0.00 1016.5
20260507004522 -17 0.0 0.0 0.00 0.00 0.00 1016.5
20260507003018 -17 0.0 0.0 0.00 0.00 0.00 1016.3
20260507001514 -17 0.0 0.0 0.00 0.00 0.00 1016.3
20260507000100 -17 0.0 0.0 0.00 0.00 0.00 1016.5
20260506234554 -17 0.0 0.0 0.00 0.00 0.00 1016.8
20260506233050 -17 0.0 0.0 0.00 0.00 0.00 1017.0
20260506231549 17 197 0.0 0.0 0.00 0.00 0.00 58 1017.1
20260506230046 17 197 0.0 0.0 0.00 0.00 0.00 59 1017.1
20260506224547 17 197 0.0 0.0 0.00 0.00 0.00 58 1017.1
20260506223101 17 197 0.0 0.0 0.00 0.00 0.00 58 1017.2
20260506221541 17 197 0.0 0.0 0.00 0.00 0.00 59 1017.3
20260506220029 17 197 0.0 0.0 0.00 0.00 0.00 57 1017.2
20260506214529 17 198 0.0 0.0 0.00 0.00 0.00 58 1017.2
20260506213025 17 197 0.0 0.0 0.00 0.00 0.00 60 1017.5
20260506211523 17 197 0.0 0.0 0.00 0.00 0.00 61 1017.6
20260506210020 18 196 0.0 0.0 0.00 0.00 0.00 59 1017.7
20260506204520 18 197 0.0 1.6 0.00 0.00 0.00 55 1017.8
20260506203021 18 197 0.0 0.0 0.00 0.00 0.00 52 1017.8
20260506201518 18 197 0.0 0.0 0.00 0.00 0.00 50 1017.7
20260506200005 19 197 0.0 0.0 0.00 0.00 0.00 48 1017.5
20260506194506 19 197 0.0 0.0 0.00 0.00 0.00 47 1017.4
20260506193002 20 197 0.0 0.0 0.00 0.00 0.00 45 1017.2
20260506191502 20 197 0.0 0.0 0.00 0.00 0.00 44 1017.0
20260506190002 20 197 0.0 0.0 0.00 0.00 0.00 43 1016.9
20260506184502 20 197 1.6 8.0 0.00 0.00 0.00 41 1016.7
20260506183106 21 197 3.2 9.7 0.00 0.00 0.00 42 1016.7
20260506181600 21 197 1.6 9.7 0.00 0.00 0.00 42 1016.5
20260506180053 21 197 0.0 6.4 0.00 0.00 0.00 40 1016.4
20260506174547 21 197 0.0 8.0 0.00 0.00 0.00 39 1016.3
20260506173053 21 197 4.8 9.7 0.00 0.00 0.00 39 1016.1
20260506171552 -17 0.0 0.0 0.00 0.00 0.00 1016.1
20260506170042 21 197 11.3 17.7 0.00 0.00 0.00 40 1015.9
20260506164541 21 197 9.7 19.3 0.00 0.00 0.00 41 1016.0
20260506163046 21 200 9.7 22.5 0.00 0.00 0.00 40 1016.0
20260506161551 22 200 12.9 22.5 0.00 0.00 0.00 39 1015.9
20260506160028 22 197 11.3 20.9 0.00 0.00 0.00 38 1015.8
20260506154527 22 200 9.7 20.9 0.00 0.00 0.00 39 1015.9
20260506153025 22 198 11.3 27.4 0.00 0.00 0.00 39 1016.1
20260506151526 22 203 12.9 25.7 0.00 0.00 0.00 40 1016.1
20260506150027 22 200 12.9 24.1 0.00 0.00 0.00 41 1016.2
20260506144526 22 200 8.0 20.9 0.00 0.00 0.00 44 1016.2
20260506143024 22 200 8.0 24.1 0.00 0.00 0.00 43 1016.2
20260506141522 22 201 9.7 25.7 0.00 0.00 0.00 44 1016.3
20260506140011 22 200 9.7 24.1 0.00 0.00 0.00 43 1016.2
20260506134520 22 198 12.9 0.0 0.00 0.00 0.00 44 1016.3
20260506133006 -17 0.0 0.0 0.00 0.00 0.00 1016.4
20260506131503 -17 0.0 0.0 0.00 0.00 0.00 1016.4
20260506130058 -17 0.0 0.0 0.00 0.00 0.00 1016.4
20260506124554 22 198 12.9 20.9 0.00 0.00 0.00 43 1016.5
20260506123055 22 200 8.0 20.9 0.00 0.00 0.00 44 1016.6
20260506121604 23 200 8.0 22.5 0.00 0.00 0.00 43 1016.7
20260506120040 23 198 4.8 16.1 0.00 0.00 0.00 43 1016.8
20260506114546 22 198 11.3 17.7 0.00 0.00 0.00 40 1016.8
20260506113040 22 197 8.0 16.1 0.00 0.00 0.00 41 1017.0
20260506111537 22 197 3.2 17.7 0.00 0.00 0.00 44 1017.0
20260506110036 22 197 3.2 16.1 0.00 0.00 0.00 43 1017.1
20260506104535 22 197 6.4 14.5 0.00 0.00 0.00 48 1017.1
20260506103034 22 197 9.7 16.1 0.00 0.00 0.00 45 1017.1
20260506101535 22 197 8.0 12.9 0.00 0.00 0.00 44 1017.2
20260506100028 22 197 4.8 12.9 0.00 0.00 0.00 46 1017.2
20260506094516 22 197 3.2 11.3 0.00 0.00 0.00 46 1017.3
20260506093001 22 198 3.2 9.7 0.00 0.00 0.00 43 1017.3
20260506091601 22 197 4.8 12.9 0.00 0.00 0.00 45 1017.3
20260506090058 22 197 0.0 12.9 0.00 0.00 0.00 47 1017.3
20260506084604 22 197 1.6 8.0 0.00 0.00 0.00 50 1017.2
20260506083114 21 197 1.6 8.0 0.00 0.00 0.00 51 1017.2
20260506081553 21 197 1.6 11.3 0.00 0.00 0.00 51 1017.3
20260506073048 21 198 4.8 9.7 0.00 0.00 0.00 49 1016.9
20260506071534 20 198 0.0 6.4 0.00 0.00 0.00 52 1016.8
20260506061533 -17 0.0 0.0 0.00 0.00 0.00 1016.8
20260506044557 17 197 0.0 0.0 0.00 0.00 0.00 59 1016.2
20260506043057 16 198 0.0 0.0 0.00 0.00 0.00 62 1016.3
20260506041601 15 197 0.0 0.0 0.00 0.00 0.00 62 1016.2
20260506040052 15 198 0.0 0.0 0.00 0.00 0.00 62 1016.0
20260506034554 -17 0.0 0.0 0.00 0.00 0.00 1015.8
20260506033045 -17 0.0 0.0 0.00 0.00 0.00 1015.7
20260506031541 -17 0.0 0.0 0.00 0.00 0.00 1015.7